Time,TemperatureF,DewpointF,PressureIn,WindDirection,WindDirectionDegrees,WindSpeedMPH,WindSpeedGustMPH,Humidity,HourlyPrecipIn,Conditions,Clouds,dailyrainin,SoftwareType,DateUTC
2013-01-11 00:02:00,35.0,35.0,30.03,North,359,0.0,0.0,100,0.03,,,-99.99,,2013-01-11 05:02:00,
2013-01-11 00:04:00,36.0,36.0,30.04,North,359,0.0,0.0,100,0.03,,,-99.99,,2013-01-11 05:04:00,
2013-01-11 00:13:00,36.0,36.0,30.04,North,359,0.0,0.0,100,0.03,,,-99.99,,2013-01-11 05:13:00,
2013-01-11 00:23:00,35.0,35.0,30.03,North,359,0.0,0.0,100,0.03,,,-99.99,,2013-01-11 05:23:00,
2013-01-11 00:33:00,35.0,35.0,30.03,North,359,0.0,0.0,100,0.03,,,-99.99,,2013-01-11 05:33:00,
2013-01-11 00:43:00,35.0,35.0,30.03,North,359,0.0,0.0,100,0.03,,,-99.99,,2013-01-11 05:43:00,
2013-01-11 00:53:00,35.0,35.0,30.03,North,359,0.0,0.0,100,0.03,,,-99.99,,2013-01-11 05:53:00,
2013-01-11 01:52:00,36.0,36.0,29.99,North,359,0.0,0.0,100,0.03,,,-99.99,,2013-01-11 06:52:00,
2013-01-11 02:02:00,36.0,36.0,29.99,North,359,0.0,0.0,100,0.03,,,-99.99,,2013-01-11 07:02:00,
2013-01-11 02:12:00,36.0,36.0,29.99,North,359,0.0,0.0,100,0.03,,,-99.99,,2013-01-11 07:12:00,
2013-01-11 02:22:00,36.0,36.0,29.99,North,359,0.0,0.0,100,0.03,,,-99.99,,2013-01-11 07:22:00,
2013-01-11 02:32:00,36.0,36.0,29.96,North,359,0.0,0.0,100,0.03,,,-99.99,,2013-01-11 07:32:00,
2013-01-11 02:42:00,36.0,36.0,29.96,North,359,0.0,0.0,100,0.03,,,-99.99,,2013-01-11 07:42:00,
2013-01-11 02:52:00,36.0,36.0,29.96,North,359,0.0,0.0,100,0.03,,,-99.99,,2013-01-11 07:52:00,
2013-01-11 03:02:00,37.0,37.0,29.94,North,359,0.0,0.0,100,0.03,,,-99.99,,2013-01-11 08:02:00,
2013-01-11 03:12:00,37.0,37.0,29.93,North,359,0.0,0.0,100,0.03,,,-99.99,,2013-01-11 08:12:00,
2013-01-11 03:22:00,37.0,37.0,29.93,North,359,0.0,0.0,100,0.03,,,-99.99,,2013-01-11 08:22:00,
2013-01-11 03:32:00,37.0,37.0,29.92,North,359,0.0,0.0,100,0.03,,,-99.99,,2013-01-11 08:32:00,
2013-01-11 03:42:00,37.0,37.0,29.92,North,359,0.0,0.0,100,0.03,,,-99.99,,2013-01-11 08:42:00,
2013-01-11 03:52:00,37.0,37.0,29.91,North,359,0.0,0.0,100,0.03,,,-99.99,,2013-01-11 08:52:00,
2013-01-11 04:02:00,38.0,38.0,29.90,North,359,0.0,0.0,100,0.03,,,-99.99,,2013-01-11 09:02:00,
2013-01-11 04:12:00,38.0,38.0,29.90,North,359,0.0,0.0,100,0.03,,,-99.99,,2013-01-11 09:12:00,
2013-01-11 04:23:00,38.0,38.0,29.90,North,359,0.0,0.0,100,0.03,,,-99.99,,2013-01-11 09:23:00,
2013-01-11 04:32:00,39.0,39.0,29.88,North,359,0.0,0.0,100,0.03,,,-99.99,,2013-01-11 09:32:00,
2013-01-11 04:42:00,39.0,39.0,29.88,North,359,0.0,0.0,100,0.03,,,-99.99,,2013-01-11 09:42:00,
2013-01-11 04:52:00,39.0,39.0,29.86,North,359,0.0,0.0,100,0.03,,,-99.99,,2013-01-11 09:52:00,
2013-01-11 05:02:00,39.0,39.0,29.84,North,359,0.0,0.0,100,0.03,,,-99.99,,2013-01-11 10:02:00,
2013-01-11 05:12:00,39.0,39.0,29.84,North,359,0.0,0.0,100,0.03,,,-99.99,,2013-01-11 10:12:00,
2013-01-11 05:22:00,39.0,39.0,29.83,North,359,0.0,0.0,100,0.03,,,-99.99,,2013-01-11 10:22:00,
2013-01-11 05:32:00,39.0,39.0,29.82,North,359,0.0,0.0,100,0.03,,,-99.99,,2013-01-11 10:32:00,
2013-01-11 05:42:00,39.0,39.0,29.82,North,359,0.0,0.0,100,0.03,,,-99.99,,2013-01-11 10:42:00,
2013-01-11 05:52:00,39.0,39.0,29.81,North,359,0.0,0.0,100,0.03,,,-99.99,,2013-01-11 10:52:00,
2013-01-11 06:03:00,39.0,39.0,29.81,North,359,0.0,0.0,100,0.03,,,-99.99,,2013-01-11 11:03:00,
2013-01-11 06:12:00,39.0,39.0,29.81,North,359,0.0,0.0,100,0.03,,,-99.99,,2013-01-11 11:12:00,
2013-01-11 06:22:00,40.0,40.0,29.79,North,359,0.0,0.0,100,0.03,,,-99.99,,2013-01-11 11:22:00,
2013-01-11 06:33:00,40.0,40.0,29.79,North,359,0.0,0.0,100,0.03,,,-99.99,,2013-01-11 11:33:00,
2013-01-11 06:43:00,40.0,40.0,29.79,North,359,0.0,0.0,100,0.03,,,-99.99,,2013-01-11 11:43:00,
2013-01-11 06:53:00,40.0,40.0,29.78,North,359,0.0,0.0,100,0.03,,,-99.99,,2013-01-11 11:53:00,
2013-01-11 07:03:00,40.0,40.0,29.77,North,359,0.0,0.0,100,0.03,,,-99.99,,2013-01-11 12:03:00,
2013-01-11 07:12:00,40.0,40.0,29.77,North,359,0.0,0.0,100,0.03,,,-99.99,,2013-01-11 12:12:00,
2013-01-11 07:22:00,40.0,40.0,29.77,North,359,0.0,0.0,100,0.03,,,-99.99,,2013-01-11 12:22:00,
2013-01-11 07:33:00,40.0,40.0,29.75,North,359,0.0,0.0,100,0.03,,,-99.99,,2013-01-11 12:33:00,
2013-01-11 07:43:00,40.0,40.0,29.75,North,359,0.0,0.0,100,0.03,,,-99.99,,2013-01-11 12:43:00,
2013-01-11 07:53:00,40.0,40.0,29.75,North,359,0.0,0.0,100,0.03,,,-99.99,,2013-01-11 12:53:00,
2013-01-11 08:03:00,41.0,41.0,29.72,North,359,0.0,0.0,100,0.03,,,-99.99,,2013-01-11 13:03:00,
2013-01-11 08:13:00,41.0,41.0,29.72,North,359,0.0,0.0,100,0.03,,,-99.99,,2013-01-11 13:13:00,
2013-01-11 08:22:00,41.0,41.0,29.72,North,359,0.0,0.0,100,0.03,,,-99.99,,2013-01-11 13:22:00,
2013-01-11 08:33:00,41.0,41.0,29.72,North,359,0.0,0.0,100,0.03,,,-99.99,,2013-01-11 13:33:00,
2013-01-11 08:43:00,41.0,41.0,29.72,North,359,0.0,0.0,100,0.03,,,-99.99,,2013-01-11 13:43:00,
2013-01-11 08:53:00,42.0,42.0,29.73,North,359,0.0,0.0,100,0.03,,,-99.99,,2013-01-11 13:53:00,
2013-01-11 09:03:00,42.0,42.0,29.73,North,359,0.0,0.0,100,0.03,,,-99.99,,2013-01-11 14:03:00,
2013-01-11 09:12:00,42.0,42.0,29.73,North,359,0.0,0.0,100,0.03,,,-99.99,,2013-01-11 14:12:00,
2013-01-11 09:23:00,43.0,43.0,29.73,North,359,0.0,0.0,100,0.03,,,-99.99,,2013-01-11 14:23:00,
2013-01-11 09:33:00,43.0,43.0,29.73,North,359,0.0,0.0,100,0.03,,,-99.99,,2013-01-11 14:33:00,
2013-01-11 09:43:00,43.0,43.0,29.73,North,359,0.0,0.0,100,0.03,,,-99.99,,2013-01-11 14:43:00,
2013-01-11 09:53:00,43.0,43.0,29.73,North,359,0.0,0.0,100,0.03,,,-99.99,,2013-01-11 14:53:00,
2013-01-11 10:03:00,43.0,43.0,29.73,North,359,0.0,0.0,100,0.03,,,-99.99,,2013-01-11 15:03:00,
2013-01-11 10:10:00,44.0,44.0,29.72,North,359,0.0,0.0,100,0.03,,,-99.99,,2013-01-11 15:10:00,
2013-01-11 10:13:00,43.0,43.0,29.73,North,359,0.0,0.0,100,0.03,,,-99.99,,2013-01-11 15:13:00,
2013-01-11 10:33:00,44.0,44.0,29.72,North,359,0.0,0.0,100,0.03,,,-99.99,,2013-01-11 15:33:00,
2013-01-11 10:43:00,44.0,44.0,29.72,North,359,0.0,0.0,100,0.03,,,-99.99,,2013-01-11 15:43:00,
2013-01-11 10:53:00,44.0,44.0,29.72,North,359,0.0,0.0,100,0.03,,,-99.99,,2013-01-11 15:53:00,
2013-01-11 11:03:00,44.0,44.0,29.72,North,359,0.0,0.0,100,0.03,,,-99.99,,2013-01-11 16:03:00,
2013-01-11 11:23:00,46.0,46.0,29.72,North,359,0.0,0.0,100,0.03,,,-99.99,,2013-01-11 16:23:00,
2013-01-11 11:33:00,46.0,46.0,29.72,North,359,0.0,0.0,100,0.03,,,-99.99,,2013-01-11 16:33:00,
2013-01-11 11:43:00,46.0,46.0,29.72,North,359,0.0,0.0,100,0.03,,,-99.99,,2013-01-11 16:43:00,
2013-01-11 11:53:00,46.0,46.0,29.72,North,359,0.0,0.0,100,0.03,,,-99.99,,2013-01-11 16:53:00,
2013-01-11 12:53:00,50.0,50.0,29.69,SSW,195,6.0,0.0,100,0.03,,,-99.99,,2013-01-11 17:53:00,
2013-01-11 13:04:00,50.0,50.0,29.69,SSW,194,3.0,0.0,100,0.03,,,-99.99,,2013-01-11 18:04:00,
2013-01-11 13:13:00,50.0,50.0,29.69,SSW,194,3.0,0.0,100,0.03,,,-99.99,,2013-01-11 18:13:00,
2013-01-11 13:23:00,50.0,50.0,29.69,SW,217,1.0,0.0,100,0.03,,,-99.99,,2013-01-11 18:23:00,
2013-01-11 13:33:00,50.0,50.0,29.69,SW,217,1.0,0.0,100,0.03,,,-99.99,,2013-01-11 18:33:00,
2013-01-11 13:43:00,50.0,50.0,29.69,SW,217,1.0,0.0,100,0.03,,,-99.99,,2013-01-11 18:43:00,
2013-01-11 13:53:00,50.0,50.0,29.69,SW,217,1.0,0.0,100,0.03,,,-99.99,,2013-01-11 18:53:00,
2013-01-11 14:02:00,49.0,49.0,29.70,SW,229,8.0,0.0,100,0.03,,,-99.99,,2013-01-11 19:02:00,
2013-01-11 14:03:00,50.0,50.0,29.70,SSW,193,5.0,0.0,100,0.03,,,-99.99,,2013-01-11 19:03:00,
2013-01-11 14:13:00,50.0,50.0,29.70,SSW,193,5.0,0.0,100,0.03,,,-99.99,,2013-01-11 19:13:00,
2013-01-11 14:23:00,49.0,49.0,29.70,SW,229,8.0,0.0,100,0.03,,,-99.99,,2013-01-11 19:23:00,
2013-01-11 14:33:00,49.0,49.0,29.70,SW,229,8.0,0.0,100,0.03,,,-99.99,,2013-01-11 19:33:00,
2013-01-11 14:43:00,49.0,49.0,29.70,SW,229,8.0,0.0,100,0.03,,,-99.99,,2013-01-11 19:43:00,
2013-01-11 14:54:00,49.0,49.0,29.70,SW,229,8.0,0.0,100,0.03,,,-99.99,,2013-01-11 19:54:00,
2013-01-11 15:10:00,48.0,48.0,29.74,SW,222,6.0,0.0,100,0.03,,,-99.99,,2013-01-11 20:10:00,
2013-01-11 15:33:00,48.0,48.0,29.74,SW,222,6.0,0.0,100,0.03,,,-99.99,,2013-01-11 20:33:00,
2013-01-11 15:43:00,48.0,48.0,29.74,SW,222,6.0,0.0,100,0.03,,,-99.99,,2013-01-11 20:43:00,
2013-01-11 15:53:00,48.0,48.0,29.74,SW,222,6.0,0.0,100,0.03,,,-99.99,,2013-01-11 20:53:00,
2013-01-11 16:03:00,48.0,48.0,29.74,SW,222,6.0,0.0,100,0.03,,,-99.99,,2013-01-11 21:03:00,
2013-01-11 17:23:00,47.0,47.0,29.78,South,170,8.0,0.0,100,0.03,,,-99.99,,2013-01-11 22:23:00,
2013-01-11 17:33:00,46.0,46.0,29.78,WSW,256,7.0,0.0,100,0.03,,,-99.99,,2013-01-11 22:33:00,
2013-01-11 17:42:00,46.0,46.0,29.78,WSW,256,7.0,0.0,100,0.03,,,-99.99,,2013-01-11 22:42:00,
2013-01-11 17:52:00,46.0,46.0,29.78,SSW,207,8.0,0.0,100,0.03,,,-99.99,,2013-01-11 22:52:00,
2013-01-11 18:02:00,46.0,46.0,29.78,SW,225,5.0,0.0,100,0.03,,,-99.99,,2013-01-11 23:02:00,
2013-01-11 18:13:00,46.0,46.0,29.78,SW,225,5.0,0.0,100,0.03,,,-99.99,,2013-01-11 23:13:00,
2013-01-11 18:23:00,46.0,46.0,29.79,SW,225,0.0,0.0,100,0.03,,,-99.99,,2013-01-11 23:23:00,
2013-01-11 18:33:00,46.0,46.0,29.76,SSW,193,8.0,0.0,100,0.03,,,-99.99,,2013-01-11 23:33:00,
2013-01-11 18:43:00,46.0,46.0,29.76,SSW,193,8.0,0.0,100,0.03,,,-99.99,,2013-01-11 23:43:00,
2013-01-11 18:53:00,46.0,46.0,29.76,SSW,193,8.0,0.0,100,0.03,,,-99.99,,2013-01-11 23:53:00,
2013-01-11 19:03:00,46.0,46.0,29.76,SSW,193,8.0,0.0,100,0.03,,,-99.99,,2013-01-12 00:03:00,
2013-01-11 19:12:00,46.0,46.0,29.76,SSW,193,8.0,0.0,100,0.03,,,-99.99,,2013-01-12 00:12:00,
2013-01-11 19:23:00,46.0,46.0,29.78,SW,214,4.0,0.0,100,0.03,,,-99.99,,2013-01-12 00:23:00,
2013-01-11 19:33:00,46.0,46.0,29.78,SW,214,4.0,0.0,100,0.03,,,-99.99,,2013-01-12 00:33:00,
2013-01-11 19:43:00,46.0,46.0,29.78,SW,214,4.0,0.0,100,0.03,,,-99.99,,2013-01-12 00:43:00,
2013-01-11 19:52:00,46.0,46.0,29.80,SSW,200,0.0,0.0,100,0.03,,,-99.99,,2013-01-12 00:52:00,
2013-01-11 20:03:00,46.0,46.0,29.80,SSW,200,0.0,0.0,100,0.03,,,-99.99,,2013-01-12 01:03:00,
2013-01-11 20:12:00,46.0,46.0,29.80,SSW,200,0.0,0.0,100,0.03,,,-99.99,,2013-01-12 01:12:00,
2013-01-11 20:22:00,46.0,46.0,29.80,SSW,200,0.0,0.0,100,0.03,,,-99.99,,2013-01-12 01:22:00,
2013-01-11 20:33:00,46.0,46.0,29.78,SSW,200,3.0,0.0,100,0.03,,,-99.99,,2013-01-12 01:33:00,
2013-01-11 20:43:00,46.0,46.0,29.78,SSW,200,3.0,0.0,100,0.03,,,-99.99,,2013-01-12 01:43:00,
2013-01-11 20:53:00,46.0,46.0,29.77,South,181,0.0,0.0,100,0.03,,,-99.99,,2013-01-12 01:53:00,
2013-01-11 21:02:00,46.0,46.0,29.77,South,172,7.0,0.0,100,0.03,,,-99.99,,2013-01-12 02:02:00,
2013-01-11 21:12:00,46.0,46.0,29.77,South,172,7.0,0.0,100,0.03,,,-99.99,,2013-01-12 02:12:00,
2013-01-11 21:22:00,47.0,47.0,29.79,SSW,194,0.0,0.0,100,0.03,,,-99.99,,2013-01-12 02:22:00,
2013-01-11 21:33:00,47.0,47.0,29.78,SSW,194,4.0,0.0,100,0.03,,,-99.99,,2013-01-12 02:33:00,
2013-01-11 21:43:00,47.0,47.0,29.78,SSW,194,4.0,0.0,100,0.03,,,-99.99,,2013-01-12 02:43:00,
2013-01-11 21:53:00,47.0,47.0,29.77,SSW,194,0.0,0.0,100,0.03,,,-99.99,,2013-01-12 02:53:00,
2013-01-11 22:03:00,47.0,47.0,29.77,SSW,194,0.0,0.0,100,0.03,,,-99.99,,2013-01-12 03:03:00,
2013-01-11 22:12:00,47.0,47.0,29.77,SSW,194,0.0,0.0,100,0.03,,,-99.99,,2013-01-12 03:12:00,
2013-01-11 22:22:00,46.0,46.0,29.76,South,172,6.0,0.0,100,0.03,,,-99.99,,2013-01-12 03:22:00,
2013-01-11 22:33:00,46.0,46.0,29.76,South,172,6.0,0.0,100,0.03,,,-99.99,,2013-01-12 03:33:00,
2013-01-11 22:43:00,46.0,46.0,29.76,South,172,6.0,0.0,100,0.03,,,-99.99,,2013-01-12 03:43:00,
2013-01-11 22:53:00,46.0,46.0,29.76,South,176,6.0,0.0,100,0.03,,,-99.99,,2013-01-12 03:53:00,
2013-01-11 23:02:00,46.0,46.0,29.76,South,176,6.0,0.0,100,0.03,,,-99.99,,2013-01-12 04:02:00,
2013-01-11 23:12:00,46.0,46.0,29.76,South,176,6.0,0.0,100,0.03,,,-99.99,,2013-01-12 04:12:00,
2013-01-11 23:33:00,46.0,46.0,29.76,South,188,8.0,0.0,100,0.03,,,-99.99,,2013-01-12 04:33:00,
2013-01-11 23:43:00,46.0,46.0,29.76,South,188,8.0,0.0,100,0.03,,,-99.99,,2013-01-12 04:43:00,
2013-01-11 23:52:00,46.0,46.0,29.76,South,188,8.0,0.0,100,0.03,,,-99.99,,2013-01-12 04:52:00,